[[{"header":{"parameterUnit":"m.s-1","parameterCategory":1,"la1":30.2991,"la2":30.254,"lo1":-89.0895,"lo2":-89.0444,"dy":0.0017,"dx":0.0017,"nx":28,"ny":28,"refTime":"2026-02-01T09:00:00:Z","depth":0,"parameterNumber":2,"parameterNumberName":"U-component_of_WINDS"},"data":[0,0,0,0,0,0,0,0,0,0,0,0,0,0,0,0,0,0,0,0,0,0,0,0,0,0,0,0,0,0,0,0,0,0,0,0,0,0,0,0,0,0,0,0,0,0,0,0,0,0,0,0,0,0,0,0,0,0,4.042,4.0422,0,4.0544,4.0545,4.0546,4.047,4.0467,4.0463,4.046,4.0583,4.059,4.0596,0,0,0,0,0,0,0,0,0,0,0,0,0,4.0117,4.0123,4.042,4.0422,4.0423,4.0543,4.0545,4.0547,4.0471,4.0466,4.0462,4.0458,4.0581,4.0589,4.0597,0,0,0,0,0,0,0,0,0,0,0,0,0,4.0245,4.0125,4.042,4.04,4.04,4.0543,4.0545,4.0547,4.0472,4.0466,4.0461,4.0456,4.0579,4.0588,4.0598,4.0767,0,0,4.0629,4.0633,0,0,0,0,0,0,0,0,4.0238,4.0256,4.0402,4.0402,4.0401,4.0486,4.0483,4.0621,4.0473,4.0444,4.046,4.0453,4.0555,4.0567,4.0602,4.0773,4.0778,4.0629,4.0635,4.064,4.0643,0,0,0,0,0,0,0,4.0229,4.0251,4.0469,4.0404,4.0404,4.0384,4.0396,4.0509,4.0528,4.0446,4.0441,4.0457,4.0554,4.0592,4.0604,4.078,4.0629,4.0638,4.0644,4.0648,4.1095,4.11,0,0,0,0,0,0,4.0222,4.0244,4.0465,4.0473,4.0305,4.0394,4.0408,4.0464,4.0527,4.0531,4.0461,4.0453,4.0578,4.0592,4.0608,4.0809,4.064,4.0649,4.0655,4.1089,4.1096,4.1102,0,0,0,0,0,0,4.0216,4.0243,4.046,4.0357,4.0383,4.0405,4.0469,4.047,4.0507,4.0538,4.0541,4.0497,4.0574,4.0594,4.0728,4.0812,4.0653,4.0663,4.1082,4.1091,4.1099,4.1212,0,0,0,0,0,0,4.0208,4.0241,4.0306,4.0359,4.0389,4.0579,4.0474,4.0476,4.0525,4.0515,4.0572,4.0577,4.0571,4.0714,4.0738,4.0823,4.067,4.1074,4.1086,4.1096,4.1201,4.1224,4.1243,0,0,0,0,0,4.0197,4.0333,4.031,4.0337,4.0471,4.0584,4.0601,4.0593,4.0532,4.0597,4.0617,4.0575,4.0799,4.0728,4.0755,4.0844,4.1069,4.1083,4.1096,4.1192,4.1219,4.1243,0,0,0,0,0,0,4.0289,4.0339,4.0314,4.0472,4.0524,4.0571,4.0653,4.0623,4.0694,4.0681,4.0668,4.0681,4.0821,4.0846,4.0766,4.101,4.0924,4.0944,4.0988,4.1015,4.1036,4.1026,4.0679,0,0,0,0,0,4.0328,4.0416,4.0455,4.059,4.0618,4.0632,4.068,4.067,4.0723,4.0745,4.0774,4.0827,4.0909,4.0964,4.1041,4.1205,4.1215,4.1279,4.13,4.1318,4.1334,4.142,4.1448,4.1146,4.1146,4.1146,0,0,4.0408,4.0447,4.0503,4.061,4.0649,4.074,4.0651,4.0751,4.0818,4.076,4.0888,4.0912,4.097,4.1119,4.1186,4.1144,4.142,4.1335,4.1348,4.1355,4.1437,4.1465,4.1491,4.1155,4.1153,4.1152,0,0,4.06,4.064,4.0755,4.0797,4.0858,4.0866,4.0894,4.0946,4.0959,4.1088,4.1046,4.1125,4.1268,4.131,4.135,4.1559,4.1522,4.1585,4.1694,4.1779,4.1802,4.1823,4.1896,4.1922,4.1601,4.1601,4.1602,0,4.0692,4.0829,4.0819,4.0922,4.0969,4.0922,4.1038,4.1079,4.1162,4.1195,4.1148,4.1324,4.136,4.1518,4.1569,4.1604,4.1634,4.1577,4.18,4.1821,4.184,4.1909,4.1937,4.1608,4.1608,4.1607,4.1606,0,4.0938,4.1033,4.1119,4.1201,4.1258,4.1367,4.1373,4.1432,4.1416,4.1429,4.1559,4.1601,4.1685,4.1722,4.1708,4.1878,4.1849,4.1802,4.1715,4.1877,4.1941,4.1967,4.1619,4.1616,4.1614,4.1612,0,0,4.1191,4.1266,4.1297,4.1333,4.1397,4.147,4.1577,4.166,4.1709,4.1769,4.1856,4.1978,4.1934,4.1979,4.197,4.2044,4.2204,4.1987,4.1988,4.2024,4.2391,4.2425,4.2456,4.2181,4.2186,4.219,4.2386,0,4.1385,4.1572,4.1566,4.174,4.1827,4.1783,4.1876,4.1924,4.1939,4.2014,4.203,4.2115,4.2052,4.2079,4.2151,4.217,4.2277,4.2156,4.2261,4.2264,4.2245,4.249,4.2527,4.2709,4.2411,4.2415,4.2418,0,4.1638,4.1705,4.1888,4.1938,4.1974,4.2057,4.2132,4.2205,4.2259,4.2264,4.2316,4.2294,4.24,4.2312,4.2458,4.2375,4.2418,4.2434,4.2441,4.2449,4.235,4.2502,4.2768,4.2794,4.2458,4.2455,4.2452,0,4.1801,4.1938,4.2064,4.2097,4.2159,4.2218,4.2247,4.2295,4.2345,4.2411,4.2443,4.252,4.2561,4.2621,4.262,4.2556,4.2767,4.2679,4.2772,4.2773,4.2817,4.2814,4.3091,4.2849,4.2848,4.2848,4.2847,0,4.2018,4.2131,4.2138,4.2216,4.2341,4.2333,4.2456,4.2478,4.2522,4.2602,4.2569,4.2645,4.264,4.2716,4.2716,4.2836,4.2855,4.2861,4.2859,4.2863,4.2862,4.2889,4.2875,4.2855,4.2853,4.2852,4.2851,0,4.2221,4.2231,4.2365,4.2413,4.2428,4.2518,4.2558,4.2631,4.2643,4.2744,4.2768,4.2786,4.2874,4.288,4.2981,4.2981,4.3126,4.3111,4.3108,4.3104,4.3196,4.3186,4.3498,4.3538,4.3272,4.3275,4.3277,0,4.2358,4.2444,4.2501,4.2552,4.2584,4.2668,4.2719,4.2714,4.2768,4.2835,4.29,4.2985,4.3052,4.3195,4.3217,4.3294,4.3279,4.3383,4.329,4.3291,4.3278,4.3272,4.3279,4.34,4.3403,4.3406,4.3408,0,4.2599,4.2599,4.2674,4.2751,4.2813,4.2873,4.2928,4.2972,4.2974,4.3036,4.3126,4.3178,4.3282,4.3366,4.3441,4.3469,4.3439,4.3437,4.3462,4.3466,4.3459,4.3461,4.3154,4.343,4.3427,4.3426,4.3425,4.3424,4.2771,4.2845,4.2896,4.298,4.3022,4.3075,4.3145,4.3166,4.3241,4.3325,4.3318,4.3417,4.3467,4.3565,4.3599,4.3675,4.364,4.3677,4.3686,4.3694,4.3703,4.3449,4.3689,4.3689,4.3688,4.3688,4.3687,0,4.3008,4.3039,4.3117,4.3196,4.3262,4.3229,4.3289,4.3345,4.3433,4.3483,4.355,4.3653,4.3734,4.3763,4.3841,4.3897,4.3885,4.3917,4.3912,4.3918,4.3732,4.3701,4.3926,4.3926,4.3926,4.3926,4.3926,4.3926,4.3139,4.3261,4.3268,4.341,4.3439,4.3537,4.3573,4.3621,4.3661,4.3777,4.3844,4.3863,4.3904,4.3985,4.4057,4.4064,4.4093,4.4131,4.4131,4.3956,4.3932,4.3909,4.388,4.4138,4.4139,4.4311,4.4313,4.4314]},{"header":{"parameterUnit":"m.s-1","parameterCategory":1,"la1":30.2991,"la2":30.254,"lo1":-89.0895,"lo2":-89.0444,"dy":0.0017,"dx":0.0017,"nx":28,"ny":28,"refTime":"2026-02-01T09:00:00:Z","depth":0,"parameterNumber":3,"parameterNumberName":"V-component_of_WINDS"},"data":[0,0,0,0,0,0,0,0,0,0,0,0,0,0,0,0,0,0,0,0,0,0,0,0,0,0,0,0,0,0,0,0,0,0,0,0,0,0,0,0,0,0,0,0,0,0,0,0,0,0,0,0,0,0,0,0,0,0,-1.2797,-1.2798,0,-1.2857,-1.2858,-1.2859,-1.2852,-1.2851,-1.2851,-1.285,-1.2912,-1.2915,-1.2917,0,0,0,0,0,0,0,0,0,0,0,0,0,-1.268,-1.2682,-1.2797,-1.2798,-1.2799,-1.2857,-1.2858,-1.2859,-1.2853,-1.2851,-1.285,-1.2849,-1.2911,-1.2914,-1.2918,0,0,0,0,0,0,0,0,0,0,0,0,0,-1.2735,-1.2683,-1.2797,-1.2803,-1.2804,-1.2857,-1.2858,-1.2859,-1.2853,-1.2851,-1.285,-1.2849,-1.291,-1.2914,-1.2918,-1.297,0,0,-1.293,-1.2931,0,0,0,0,0,0,0,0,-1.2731,-1.2739,-1.2801,-1.2802,-1.2804,-1.2846,-1.284,-1.2896,-1.2853,-1.2834,-1.285,-1.2848,-1.2891,-1.2897,-1.2911,-1.2973,-1.2975,-1.293,-1.2932,-1.2934,-1.2935,0,0,0,0,0,0,0,-1.2728,-1.2736,-1.2821,-1.2802,-1.2804,-1.2803,-1.2809,-1.285,-1.287,-1.2836,-1.2835,-1.2843,-1.2892,-1.2907,-1.2913,-1.2976,-1.293,-1.2933,-1.2936,-1.2937,-1.3085,-1.3087,0,0,0,0,0,0,-1.2722,-1.2733,-1.2819,-1.2823,-1.2763,-1.2806,-1.2813,-1.2834,-1.287,-1.2874,-1.2844,-1.2842,-1.2902,-1.2908,-1.2915,-1.2978,-1.2934,-1.2937,-1.294,-1.3083,-1.3085,-1.3087,0,0,0,0,0,0,-1.272,-1.273,-1.2817,-1.2778,-1.2789,-1.281,-1.2833,-1.2836,-1.2851,-1.2876,-1.2879,-1.2856,-1.2901,-1.2909,-1.2956,-1.298,-1.2939,-1.2943,-1.3082,-1.3084,-1.3086,-1.3106,0,0,0,0,0,0,-1.2716,-1.2729,-1.2748,-1.2778,-1.2791,-1.2857,-1.2835,-1.2838,-1.2858,-1.2856,-1.2888,-1.2892,-1.29,-1.2951,-1.296,-1.2985,-1.2946,-1.3079,-1.3083,-1.3086,-1.3103,-1.3108,-1.3113,0,0,0,0,0,-1.2712,-1.2751,-1.2749,-1.276,-1.2815,-1.2858,-1.2865,-1.2874,-1.286,-1.288,-1.2896,-1.2891,-1.2976,-1.2956,-1.2966,-1.2992,-1.3078,-1.3082,-1.3085,-1.3101,-1.3107,-1.3113,0,0,0,0,0,0,-1.2724,-1.2755,-1.2753,-1.2803,-1.2828,-1.2857,-1.2882,-1.2881,-1.291,-1.2907,-1.2917,-1.2925,-1.2972,-1.2987,-1.2963,-1.3045,-1.3025,-1.3031,-1.3033,-1.304,-1.3045,-1.304,-1.2949,0,0,0,0,0,-1.2732,-1.2763,-1.279,-1.2831,-1.2844,-1.2861,-1.288,-1.2884,-1.2911,-1.2921,-1.294,-1.2966,-1.2999,-1.3021,-1.3052,-1.3106,-1.3113,-1.3129,-1.3134,-1.3138,-1.3143,-1.3173,-1.3181,-1.3099,-1.3099,-1.3099,0,0,-1.2749,-1.2771,-1.279,-1.2834,-1.2854,-1.2887,-1.287,-1.2905,-1.293,-1.2927,-1.2972,-1.2987,-1.3017,-1.3068,-1.3091,-1.3082,-1.3167,-1.3143,-1.3146,-1.3149,-1.3178,-1.3186,-1.3192,-1.3102,-1.3101,-1.3101,0,0,-1.2798,-1.2817,-1.2854,-1.2874,-1.2904,-1.2916,-1.2925,-1.2954,-1.2964,-1.301,-1.3009,-1.3039,-1.3095,-1.3117,-1.3135,-1.3194,-1.3191,-1.3204,-1.323,-1.326,-1.3266,-1.3272,-1.3293,-1.3301,-1.3209,-1.3209,-1.3209,0,-1.2816,-1.2865,-1.2873,-1.2909,-1.2929,-1.2928,-1.2966,-1.2986,-1.3025,-1.3039,-1.3028,-1.3099,-1.3119,-1.3175,-1.319,-1.3205,-1.3216,-1.32,-1.3265,-1.3271,-1.3276,-1.3296,-1.3304,-1.321,-1.321,-1.321,-1.321,0,-1.2886,-1.292,-1.2946,-1.2984,-1.3007,-1.3044,-1.3059,-1.3081,-1.3085,-1.3098,-1.3145,-1.3169,-1.3206,-1.322,-1.3224,-1.3277,-1.3271,-1.3262,-1.3242,-1.3285,-1.3304,-1.3312,-1.3212,-1.3212,-1.3212,-1.3211,0,0,-1.2941,-1.2984,-1.2994,-1.3011,-1.3045,-1.3072,-1.311,-1.3146,-1.3165,-1.3193,-1.3225,-1.3273,-1.3266,-1.3287,-1.3293,-1.3319,-1.3365,-1.3308,-1.3309,-1.3318,-1.3426,-1.3432,-1.3441,-1.3364,-1.3365,-1.3366,-1.3424,0,-1.2993,-1.3059,-1.3068,-1.3127,-1.3159,-1.3159,-1.3192,-1.3217,-1.3231,-1.3261,-1.3276,-1.331,-1.3298,-1.3311,-1.3337,-1.3354,-1.3387,-1.335,-1.3394,-1.3396,-1.3386,-1.3451,-1.3457,-1.351,-1.3432,-1.3433,-1.3434,0,-1.3062,-1.3091,-1.3152,-1.3183,-1.3197,-1.3226,-1.326,-1.3289,-1.3318,-1.3326,-1.335,-1.3354,-1.3394,-1.3373,-1.3429,-1.3404,-1.3423,-1.3435,-1.3437,-1.3441,-1.3417,-1.3457,-1.3527,-1.3535,-1.3446,-1.3445,-1.3444,0,-1.3096,-1.3152,-1.3195,-1.321,-1.3247,-1.3268,-1.3284,-1.3312,-1.3333,-1.3364,-1.3378,-1.3413,-1.3432,-1.346,-1.3473,-1.3456,-1.3528,-1.3508,-1.3537,-1.3537,-1.3551,-1.355,-1.3625,-1.3564,-1.3564,-1.3564,-1.3564,0,-1.3153,-1.319,-1.3212,-1.3238,-1.3281,-1.3293,-1.3335,-1.3351,-1.3376,-1.3407,-1.341,-1.3439,-1.3455,-1.3487,-1.3497,-1.3543,-1.3551,-1.356,-1.3562,-1.3559,-1.3558,-1.3571,-1.3568,-1.3566,-1.3566,-1.3565,-1.3565,0,-1.3198,-1.3214,-1.3262,-1.3293,-1.3302,-1.3332,-1.3359,-1.3386,-1.34,-1.3439,-1.3449,-1.3472,-1.3509,-1.3526,-1.3572,-1.358,-1.3632,-1.3631,-1.3621,-1.3622,-1.365,-1.3647,-1.3736,-1.3748,-1.3679,-1.368,-1.368,0,-1.3233,-1.3262,-1.3296,-1.3317,-1.3334,-1.3367,-1.3389,-1.3403,-1.3425,-1.3462,-1.3484,-1.3522,-1.3553,-1.3614,-1.3635,-1.3671,-1.3672,-1.37,-1.3677,-1.3674,-1.3672,-1.367,-1.3673,-1.3704,-1.3705,-1.3706,-1.3706,0,-1.3293,-1.3299,-1.333,-1.3365,-1.3391,-1.3419,-1.3446,-1.3463,-1.3481,-1.3507,-1.3546,-1.357,-1.3618,-1.3656,-1.3693,-1.3711,-1.3712,-1.3714,-1.3722,-1.3719,-1.3712,-1.3716,-1.3633,-1.3711,-1.3711,-1.371,-1.371,-1.371,-1.3334,-1.336,-1.3388,-1.3423,-1.3445,-1.3471,-1.3498,-1.3516,-1.3548,-1.3588,-1.3594,-1.3636,-1.3666,-1.3716,-1.3736,-1.3769,-1.3762,-1.3775,-1.3778,-1.378,-1.3782,-1.3707,-1.3776,-1.3776,-1.3776,-1.3776,-1.3776,0,-1.3394,-1.3412,-1.3444,-1.3483,-1.3511,-1.3509,-1.354,-1.3563,-1.36,-1.3627,-1.3658,-1.3703,-1.374,-1.3765,-1.3803,-1.3825,-1.3826,-1.3834,-1.3833,-1.3837,-1.3786,-1.3775,-1.3833,-1.3833,-1.3833,-1.3833,-1.3833,-1.3833,-1.3428,-1.3472,-1.3482,-1.3538,-1.3557,-1.3597,-1.3615,-1.3639,-1.3661,-1.3711,-1.3742,-1.3758,-1.3785,-1.3825,-1.386,-1.3866,-1.388,-1.3889,-1.3895,-1.3846,-1.3841,-1.3835,-1.3824,-1.3892,-1.3892,-1.3943,-1.3943,-1.3944]}]]